• In Hungary
  • List of Countries
  • For 7 days
  • Water Temperature
  • Satellite Maps
  • Weather Map
  • News
  • Weather Widgets
  • user-avatar
    Login

    Hourly Weather Kuantan

    Today, 21 September, Friday

    Time Temperature Precipitation Wind Pressure Humidity
    00:00 +26°C° 0 mm 1 mps 754 mmHg 96%
    01:00 +24°C° 0 mm 0 mps 754 mmHg 96%
    02:00 +25°C° 0.2 mm 1 mps 754 mmHg 96%
    03:00 +25°C° 0.2 mm 1 mps 754 mmHg 97%
    04:00 +25°C° 0.2 mm 1 mps 753 mmHg 97%
    05:00 +26°C° 0.1 mm 1 mps 754 mmHg 96%
    06:00 +26°C° 0.1 mm 1 mps 754 mmHg 94%
    07:00 +26°C° 0.1 mm 1 mps 754 mmHg 93%
    08:00 +29°C° 0.3 mm 1 mps 754 mmHg 80%
    09:00 +32°C° 0.3 mm 1 mps 755 mmHg 67%
    10:00 +33°C° 0.3 mm 0 mps 755 mmHg 54%
    11:00 +34°C° 0.6 mm 1 mps 754 mmHg 61%
    12:00 +34°C° 0.6 mm 2 mps 754 mmHg 67%
    13:00 +34°C° 0 mm 1 mps 754 mmHg 59%
    14:00 +33°C° 0.4 mm 1 mps 754 mmHg 65%
    15:00 +32°C° 0.4 mm 2 mps 753 mmHg 71%
    16:00 +31°C° 0.4 mm 2 mps 753 mmHg 76%
    17:00 +29°C° 0.2 mm 2 mps 754 mmHg 82%
    18:00 +28°C° 0.2 mm 2 mps 754 mmHg 87%
    19:00 +27°C° 0.2 mm 1 mps 754 mmHg 92%
    20:00 +27°C° 0 mm 1 mps 755 mmHg 93%
    21:00 +27°C° 0 mm 1 mps 755 mmHg 94%
    22:00 +26°C° 0 mm 1 mps 755 mmHg 94%
    23:00 +26°C° 0 mm 1 mps 755 mmHg 94%

    Tomorrow, 22 September, Saturday

    Time Temperature Precipitation Wind Pressure Humidity
    00:00 +24°C° 0 mm 0 mps 755 mmHg 95%
    01:00 +24°C° 0 mm 0 mps 755 mmHg 95%
    02:00 +26°C° 0.5 mm 1 mps 755 mmHg 96%
    03:00 +25°C° 0.5 mm 1 mps 754 mmHg 96%
    04:00 +25°C° 0.5 mm 1 mps 754 mmHg 97%
    05:00 +25°C° 0.9 mm 1 mps 755 mmHg 96%
    06:00 +26°C° 0.9 mm 2 mps 755 mmHg 94%
    07:00 +26°C° 0.9 mm 2 mps 755 mmHg 93%
    08:00 +28°C° 0.4 mm 2 mps 755 mmHg 85%
    09:00 +30°C° 0.4 mm 2 mps 756 mmHg 76%
    10:00 +32°C° 0.4 mm 2 mps 756 mmHg 68%
    11:00 +32°C° 1.2 mm 2 mps 755 mmHg 71%
    12:00 +32°C° 1.2 mm 2 mps 755 mmHg 73%
    13:00 +31°C° 1.2 mm 2 mps 754 mmHg 76%
    14:00 +32°C° 0.3 mm 2 mps 754 mmHg 74%
    15:00 +32°C° 0.3 mm 2 mps 754 mmHg 72%
    16:00 +32°C° 0.3 mm 2 mps 753 mmHg 70%
    17:00 +30°C° 0.3 mm 2 mps 754 mmHg 77%
    18:00 +29°C° 0.3 mm 2 mps 754 mmHg 85%
    19:00 +27°C° 0.3 mm 2 mps 754 mmHg 93%
    20:00 +27°C° 0.1 mm 2 mps 755 mmHg 93%
    21:00 +27°C° 0.1 mm 1 mps 755 mmHg 93%
    22:00 +26°C° 0.1 mm 1 mps 756 mmHg 93%
    23:00 +26°C° 0.1 mm 1 mps 756 mmHg 94%

    Day after tomorrow, 23 September, Sunday

    Time Temperature Precipitation Wind Pressure Humidity
    00:00 +26°C° 0.1 mm 1 mps 755 mmHg 95%
    01:00 +26°C° 0.1 mm 1 mps 755 mmHg 95%
    02:00 +26°C° 0 mm 1 mps 755 mmHg 95%
    03:00 +25°C° 0 mm 1 mps 755 mmHg 96%
    04:00 +25°C° 0 mm 1 mps 754 mmHg 96%
    05:00 +26°C° 0.2 mm 1 mps 755 mmHg 94%
    06:00 +26°C° 0.2 mm 1 mps 755 mmHg 92%
    07:00 +27°C° 0.2 mm 1 mps 756 mmHg 91%
    08:00 +29°C° 0 mm 2 mps 756 mmHg 79%
    09:00 +32°C° 0 mm 2 mps 756 mmHg 68%
    10:00 +35°C° 0 mm 2 mps 756 mmHg 56%
    11:00 +36°C° 0 mm 3 mps 756 mmHg 54%
    12:00 +36°C° 0 mm 3 mps 755 mmHg 52%
    13:00 +37°C° 0 mm 3 mps 754 mmHg 49%
    14:00 +36°C° 0.3 mm 3 mps 754 mmHg 55%
    15:00 +35°C° 0.3 mm 4 mps 753 mmHg 60%
    16:00 +34°C° 0.3 mm 4 mps 753 mmHg 65%
    17:00 +31°C° 0.6 mm 3 mps 753 mmHg 75%
    18:00 +29°C° 0.6 mm 3 mps 754 mmHg 84%
    19:00 +27°C° 0.6 mm 3 mps 754 mmHg 94%
    20:00 +27°C° 0.2 mm 2 mps 755 mmHg 94%
    21:00 +26°C° 0.2 mm 2 mps 755 mmHg 94%
    22:00 +26°C° 0.2 mm 2 mps 756 mmHg 94%
    23:00 +26°C° 0.5 mm 2 mps 756 mmHg 94%

    24 September, Monday

    Time Temperature Precipitation Wind Pressure Humidity
    00:00 +26°C° 0.5 mm 2 mps 755 mmHg 95%
    01:00 +26°C° 0.5 mm 1 mps 755 mmHg 95%
    02:00 +25°C° 0 mm 1 mps 755 mmHg 96%
    03:00 +25°C° 0 mm 1 mps 754 mmHg 96%
    04:00 +25°C° 0 mm 1 mps 754 mmHg 97%
    05:00 +25°C° 0 mm 1 mps 754 mmHg 96%
    06:00 +26°C° 0 mm 2 mps 755 mmHg 95%
    07:00 +26°C° 0 mm 2 mps 755 mmHg 94%
    08:00 +29°C° 0 mm 2 mps 756 mmHg 80%
    09:00 +32°C° 0 mm 1 mps 756 mmHg 67%
    10:00 +35°C° 0 mm 1 mps 756 mmHg 54%
    11:00 +37°C° 0 mm 2 mps 755 mmHg 49%
    12:00 +38°C° 0 mm 2 mps 755 mmHg 44%
    13:00 +38°C° 0 mm 3 mps 754 mmHg 39%
    14:00 +38°C° 0 mm 3 mps 753 mmHg 43%
    15:00 +37°C° 0 mm 3 mps 753 mmHg 46%
    16:00 +36°C° 0 mm 3 mps 752 mmHg 50%
    17:00 +34°C° 0 mm 3 mps 753 mmHg 62%
    18:00 +30°C° 0 mm 3 mps 753 mmHg 75%
    19:00 +28°C° 0 mm 3 mps 754 mmHg 88%
    20:00 +27°C° 0.1 mm 3 mps 754 mmHg 90%
    21:00 +27°C° 0.1 mm 2 mps 755 mmHg 92%
    22:00 +27°C° 0.1 mm 2 mps 755 mmHg 94%
    23:00 +26°C° 0.5 mm 2 mps 755 mmHg 94%

    25 September, Tuesday

    Time Temperature Precipitation Wind Pressure Humidity
    00:00 +26°C° 0.5 mm 2 mps 755 mmHg 94%
    01:00 +26°C° 0.5 mm 2 mps 754 mmHg 94%
    02:00 +26°C° 0.4 mm 2 mps 754 mmHg 94%
    03:00 +26°C° 0.4 mm 2 mps 754 mmHg 94%
    04:00 +26°C° 0.4 mm 1 mps 753 mmHg 95%
    05:00 +26°C° 0 mm 1 mps 754 mmHg 93%
    06:00 +26°C° 0 mm 1 mps 754 mmHg 91%
    07:00 +27°C° 0 mm 1 mps 755 mmHg 89%
    08:00 +30°C° 0 mm 2 mps 755 mmHg 77%
    09:00 +32°C° 0 mm 2 mps 755 mmHg 64%
    10:00 +36°C° 0 mm 2 mps 756 mmHg 52%
    11:00 +37°C° 0 mm 2 mps 755 mmHg 47%
    12:00 +38°C° 0 mm 3 mps 754 mmHg 42%
    13:00 +38°C° 0 mm 3 mps 753 mmHg 38%
    14:00 +38°C° 0 mm 3 mps 753 mmHg 40%
    15:00 +37°C° 0 mm 3 mps 752 mmHg 41%
    16:00 +37°C° 0 mm 4 mps 752 mmHg 43%
    17:00 +34°C° 0 mm 4 mps 752 mmHg 56%
    18:00 +32°C° 0 mm 4 mps 753 mmHg 68%
    19:00 +28°C° 0 mm 4 mps 753 mmHg 81%
    20:00 +28°C° 0.5 mm 3 mps 754 mmHg 84%
    21:00 +27°C° 0.5 mm 3 mps 754 mmHg 88%
    22:00 +27°C° 0.5 mm 3 mps 755 mmHg 92%
    23:00 +27°C° 0.5 mm 3 mps 755 mmHg 91%

    26 September, Wednesday

    Time Temperature Precipitation Wind Pressure Humidity
    00:00 +27°C° 0.5 mm 2 mps 754 mmHg 91%
    01:00 +26°C° 0.5 mm 2 mps 754 mmHg 91%
    02:00 +26°C° 0 mm 2 mps 753 mmHg 92%
    03:00 +26°C° 0 mm 2 mps 753 mmHg 92%
    04:00 +26°C° 0 mm 2 mps 753 mmHg 93%
    05:00 +26°C° 0 mm 2 mps 753 mmHg 91%
    06:00 +26°C° 0 mm 2 mps 754 mmHg 89%
    07:00 +27°C° 0 mm 2 mps 754 mmHg 88%
    08:00 +29°C° 0 mm 2 mps 755 mmHg 76%
    09:00 +32°C° 0 mm 2 mps 755 mmHg 64%
    10:00 +35°C° 0 mm 2 mps 755 mmHg 52%
    11:00 +36°C° 0 mm 3 mps 754 mmHg 50%
    12:00 +36°C° 0 mm 3 mps 753 mmHg 48%
    13:00 +37°C° 0 mm 3 mps 752 mmHg 46%
    14:00 +36°C° 0 mm 3 mps 752 mmHg 48%
    15:00 +36°C° 0 mm 4 mps 752 mmHg 50%
    16:00 +36°C° 0 mm 4 mps 752 mmHg 52%
    17:00 +33°C° 1.2 mm 4 mps 752 mmHg 65%
    18:00 +30°C° 1.2 mm 4 mps 753 mmHg 79%
    19:00 +27°C° 1.2 mm 4 mps 753 mmHg 92%
    20:00 +27°C° 0.6 mm 3 mps 754 mmHg 93%
    21:00 +27°C° 0.6 mm 3 mps 754 mmHg 94%
    22:00 +26°C° 0.6 mm 2 mps 755 mmHg 95%
    23:00 +26°C° 0.3 mm 2 mps 754 mmHg 95%
    Show more